When you browse on this site, cookies collect data to enhance your experience and personalize the content and advertising you see.
Visit our Privacy Policy to learn more. By continuing to use the site, you agree to this use of cookies and data.
  • In Österreich
  • Länderverzeichnis
  • Für 7 Tage
  • Wassertemperatur
  • Satellitenkarten
  • Wetterkarte
  • News
  • Widgets
  • user-avatar
    Anmelden

    Stündliche Wetter Dangriga

    Heute, 20 April, Samstag

    Zeit Temperatur Niederschläge Wind Luftdruck Luftfeuchtigkeit
    00:00 +24°C° 1.9 mm 6 m/S 762 mmHg 94%
    01:00 +24°C° 0.4 mm 6 m/S 762 mmHg 89%
    02:00 +24°C° 0.4 mm 6 m/S 762 mmHg 84%
    03:00 +24°C° 0.4 mm 7 m/S 762 mmHg 80%
    04:00 +24°C° 0 mm 6 m/S 763 mmHg 80%
    05:00 +23°C° 0 mm 6 m/S 763 mmHg 79%
    06:00 +23°C° 0 mm 6 m/S 763 mmHg 79%
    07:00 +24°C° 0 mm 6 m/S 764 mmHg 70%
    08:00 +26°C° 0 mm 6 m/S 764 mmHg 60%
    09:00 +28°C° 0 mm 5 m/S 765 mmHg 51%
    10:00 +29°C° 0 mm 5 m/S 765 mmHg 45%
    11:00 +32°C° 0 mm 4 m/S 764 mmHg 38%
    12:00 +33°C° 0 mm 4 m/S 764 mmHg 32%
    13:00 +34°C° 0 mm 4 m/S 763 mmHg 32%
    14:00 +34°C° 0 mm 4 m/S 762 mmHg 32%
    15:00 +34°C° 0 mm 4 m/S 762 mmHg 32%
    16:00 +32°C° 0 mm 4 m/S 762 mmHg 41%
    17:00 +29°C° 0 mm 4 m/S 761 mmHg 50%
    18:00 +27°C° 0 mm 4 m/S 761 mmHg 58%
    19:00 +26°C° 0 mm 3 m/S 762 mmHg 63%
    20:00 +25°C° 0 mm 3 m/S 762 mmHg 67%
    21:00 +24°C° 0 mm 2 m/S 763 mmHg 71%
    22:00 +24°C° 0 mm 2 m/S 763 mmHg 73%
    23:00 +24°C° 0 mm 1 m/S 763 mmHg 75%

    Morgen, 21 April, Sonntag

    Zeit Temperatur Niederschläge Wind Luftdruck Luftfeuchtigkeit
    00:00 +23°C° 0 mm 1 m/S 763 mmHg 76%
    01:00 +23°C° 0 mm 1 m/S 763 mmHg 77%
    02:00 +23°C° 0 mm 1 m/S 762 mmHg 78%
    03:00 +23°C° 0 mm 1 m/S 762 mmHg 79%
    04:00 +23°C° 0 mm 1 m/S 762 mmHg 80%
    05:00 +23°C° 0 mm 1 m/S 763 mmHg 81%
    06:00 +23°C° 0 mm 2 m/S 763 mmHg 82%
    07:00 +25°C° 0.1 mm 2 m/S 763 mmHg 76%
    08:00 +27°C° 0.1 mm 2 m/S 764 mmHg 69%
    09:00 +29°C° 0.1 mm 2 m/S 764 mmHg 63%
    10:00 +29°C° 0.2 mm 3 m/S 764 mmHg 64%
    11:00 +29°C° 0.2 mm 3 m/S 764 mmHg 66%
    12:00 +29°C° 0.2 mm 4 m/S 763 mmHg 68%
    13:00 +29°C° 0.1 mm 4 m/S 763 mmHg 65%
    14:00 +30°C° 0.1 mm 4 m/S 762 mmHg 61%
    15:00 +30°C° 0.1 mm 4 m/S 761 mmHg 58%
    16:00 +29°C° 0 mm 4 m/S 761 mmHg 62%
    17:00 +28°C° 0 mm 4 m/S 761 mmHg 65%
    18:00 +27°C° 0 mm 3 m/S 762 mmHg 69%
    19:00 +26°C° 0 mm 3 m/S 762 mmHg 72%
    20:00 +26°C° 0 mm 3 m/S 763 mmHg 75%
    21:00 +25°C° 0 mm 3 m/S 763 mmHg 77%
    22:00 +25°C° 0 mm 3 m/S 763 mmHg 79%
    23:00 +25°C° 0 mm 3 m/S 763 mmHg 81%

    übermorgen, 22 April, Montag

    Zeit Temperatur Niederschläge Wind Luftdruck Luftfeuchtigkeit
    00:00 +25°C° 0 mm 2 m/S 762 mmHg 83%
    01:00 +25°C° 0.2 mm 2 m/S 762 mmHg 86%
    02:00 +25°C° 0.2 mm 2 m/S 761 mmHg 88%
    03:00 +25°C° 0.2 mm 2 m/S 761 mmHg 90%
    04:00 +25°C° 0.3 mm 2 m/S 761 mmHg 92%
    05:00 +25°C° 0.3 mm 2 m/S 761 mmHg 93%
    06:00 +25°C° 0.3 mm 3 m/S 761 mmHg 94%
    07:00 +26°C° 0.5 mm 3 m/S 761 mmHg 91%
    08:00 +27°C° 0.5 mm 3 m/S 762 mmHg 87%
    09:00 +28°C° 0.5 mm 3 m/S 762 mmHg 84%
    10:00 +29°C° 0.7 mm 3 m/S 762 mmHg 82%
    11:00 +29°C° 0.7 mm 3 m/S 762 mmHg 80%
    12:00 +30°C° 0.7 mm 3 m/S 761 mmHg 78%
    13:00 +30°C° 0.1 mm 3 m/S 761 mmHg 73%
    14:00 +32°C° 0.1 mm 4 m/S 760 mmHg 68%
    15:00 +33°C° 0.1 mm 4 m/S 759 mmHg 62%
    16:00 +30°C° 0 mm 4 m/S 759 mmHg 69%
    17:00 +29°C° 0 mm 4 m/S 759 mmHg 75%
    18:00 +28°C° 0 mm 4 m/S 760 mmHg 81%
    19:00 +28°C° 0.1 mm 4 m/S 760 mmHg 85%
    20:00 +27°C° 0.1 mm 4 m/S 760 mmHg 88%
    21:00 +27°C° 0.1 mm 4 m/S 761 mmHg 92%
    22:00 +26°C° 0.1 mm 4 m/S 761 mmHg 92%
    23:00 +26°C° 0.1 mm 4 m/S 761 mmHg 91%

    23 April, Dienstag

    Zeit Temperatur Niederschläge Wind Luftdruck Luftfeuchtigkeit
    00:00 +26°C° 0.1 mm 4 m/S 760 mmHg 91%
    01:00 +26°C° 0.1 mm 4 m/S 760 mmHg 92%
    02:00 +26°C° 0.1 mm 4 m/S 759 mmHg 93%
    03:00 +26°C° 0.1 mm 3 m/S 759 mmHg 93%
    04:00 +26°C° 0.2 mm 4 m/S 759 mmHg 94%
    05:00 +26°C° 0.2 mm 4 m/S 759 mmHg 95%
    06:00 +26°C° 0.2 mm 4 m/S 760 mmHg 96%
    07:00 +27°C° 0.4 mm 4 m/S 760 mmHg 93%
    08:00 +28°C° 0.4 mm 4 m/S 760 mmHg 90%
    09:00 +29°C° 0.4 mm 4 m/S 761 mmHg 88%
    10:00 +30°C° 0.3 mm 4 m/S 760 mmHg 79%
    11:00 +32°C° 0.3 mm 4 m/S 760 mmHg 71%
    12:00 +33°C° 0.3 mm 4 m/S 760 mmHg 62%
    13:00 +33°C° 0 mm 5 m/S 759 mmHg 61%
    14:00 +33°C° 0 mm 5 m/S 758 mmHg 61%
    15:00 +33°C° 0 mm 5 m/S 758 mmHg 61%
    16:00 +32°C° 0 mm 5 m/S 758 mmHg 66%
    17:00 +30°C° 0 mm 4 m/S 758 mmHg 72%
    18:00 +29°C° 0 mm 4 m/S 758 mmHg 78%
    19:00 +28°C° 0 mm 4 m/S 759 mmHg 80%
    20:00 +28°C° 0 mm 4 m/S 759 mmHg 83%
    21:00 +27°C° 0 mm 4 m/S 760 mmHg 86%
    22:00 +27°C° 0.1 mm 4 m/S 759 mmHg 86%
    23:00 +27°C° 0.1 mm 4 m/S 759 mmHg 86%

    24 April, Mittwoch

    Zeit Temperatur Niederschläge Wind Luftdruck Luftfeuchtigkeit
    00:00 +27°C° 0.1 mm 4 m/S 759 mmHg 86%
    01:00 +27°C° 0.1 mm 4 m/S 759 mmHg 88%
    02:00 +27°C° 0.1 mm 4 m/S 758 mmHg 90%
    03:00 +26°C° 0.1 mm 3 m/S 758 mmHg 92%
    04:00 +26°C° 0.1 mm 3 m/S 758 mmHg 92%
    05:00 +26°C° 0.1 mm 3 m/S 758 mmHg 92%
    06:00 +26°C° 0.1 mm 3 m/S 759 mmHg 93%
    07:00 +28°C° 0.1 mm 3 m/S 759 mmHg 84%
    08:00 +29°C° 0.1 mm 4 m/S 759 mmHg 76%
    09:00 +32°C° 0.1 mm 4 m/S 760 mmHg 68%
    10:00 +33°C° 0.1 mm 4 m/S 759 mmHg 64%
    11:00 +34°C° 0.1 mm 4 m/S 759 mmHg 60%
    12:00 +34°C° 0.1 mm 4 m/S 758 mmHg 56%
    13:00 +34°C° 0 mm 4 m/S 758 mmHg 57%
    14:00 +34°C° 0 mm 4 m/S 757 mmHg 58%
    15:00 +34°C° 0 mm 4 m/S 756 mmHg 60%
    16:00 +32°C° 0 mm 4 m/S 757 mmHg 67%
    17:00 +30°C° 0 mm 4 m/S 757 mmHg 73%
    18:00 +29°C° 0 mm 4 m/S 757 mmHg 80%
    19:00 +28°C° 0 mm 4 m/S 757 mmHg 82%
    20:00 +28°C° 0 mm 4 m/S 758 mmHg 84%
    21:00 +28°C° 0 mm 4 m/S 758 mmHg 86%
    22:00 +28°C° 0 mm 4 m/S 758 mmHg 86%
    23:00 +28°C° 0 mm 4 m/S 758 mmHg 86%

    25 April, Donnerstag

    Zeit Temperatur Niederschläge Wind Luftdruck Luftfeuchtigkeit
    00:00 +28°C° 0 mm 4 m/S 757 mmHg 86%
    01:00 +28°C° 0 mm 4 m/S 757 mmHg 86%
    02:00 +28°C° 0 mm 4 m/S 757 mmHg 87%
    03:00 +28°C° 0 mm 4 m/S 756 mmHg 87%
    04:00 +27°C° 0.2 mm 4 m/S 757 mmHg 89%
    05:00 +27°C° 0.2 mm 4 m/S 757 mmHg 92%
    06:00 +27°C° 0.2 mm 4 m/S 758 mmHg 94%
    07:00 +28°C° 0.1 mm 4 m/S 758 mmHg 89%
    08:00 +30°C° 0.1 mm 4 m/S 758 mmHg 83%
    09:00 +32°C° 0.1 mm 4 m/S 759 mmHg 77%
    10:00 +33°C° 0 mm 4 m/S 758 mmHg 72%
    11:00 +34°C° 0 mm 3 m/S 758 mmHg 66%
    12:00 +35°C° 0 mm 3 m/S 757 mmHg 60%
    13:00 +35°C° 0 mm 4 m/S 757 mmHg 60%
    14:00 +35°C° 0 mm 4 m/S 756 mmHg 60%
    15:00 +35°C° 0 mm 4 m/S 756 mmHg 60%
    16:00 +33°C° 0 mm 4 m/S 756 mmHg 66%
    17:00 +32°C° 0 mm 4 m/S 756 mmHg 72%
    18:00 +30°C° 0 mm 4 m/S 757 mmHg 78%
    19:00 +29°C° 0 mm 3 m/S 757 mmHg 82%
    20:00 +28°C° 0 mm 3 m/S 758 mmHg 85%
    21:00 +28°C° 0 mm 3 m/S 758 mmHg 89%
    22:00 +28°C° 0 mm 3 m/S 758 mmHg 90%
    23:00 +28°C° 0 mm 3 m/S 758 mmHg 91%
    Mehr zeigen